Tracking 32991 objects as of 22-Jan-2026
HD Live streaming from Space Station
objects crossing your sky now

FREGAT DEB

Track FREGAT DEB now!
10-day predictions


NORAD ID: 45901
Int'l Code: 2011-037DW
Perigee: 688.0 km
Apogee: 4,346.7 km
Inclination: 51.4 °
Period: 139.0 minutes
Semi major axis: 8888 km
RCS: Unknown
Launch date: July 18, 2011
Source: Commonwealth of Independent States (former USSR) (CIS)
Launch site: TYURATAM MISSILE AND SPACE COMPLEX (TTMTR)

Note: This is SATELLITE DEBRIS
Your satellite tracking list
Your tracking list is empty




NASA's NSSDC Master Catalog

Two Line Element Set (TLE):
1 45901U 11037DW  26020.37467490  .00031071  00000-0  52389-1 0  9991
2 45901  51.4397 140.5454 2058168  35.0095 337.0083 10.36024611 91968
Source of the keplerian elements: AFSPC